Flight Track Log - Related Links

Times and Time Zones

All times are in EDT time to prevent confusion due to time zone crossing. See the SWA1635 flight status page for this flight to view local times or setup timezone preferences in your user account.

Time Position Orientation Groundspeed Altitude Reporting Facility
EDT Latitude Longitude Course Direction KTS MPH feet Rate Location/Type
Thu 02:18:57 PM 33.9389 -118.5281 264° West 235 270 4,400  Level Los Angeles Center
Thu 02:19:59 PM 33.9267 -118.6267 262° West 275 316 8,300 3,242 Climbing Los Angeles Center
Thu 02:21:01 PM 33.9167 -118.7261 263° West 301 346 11,100 2,661 Climbing Los Angeles Center
Thu 02:22:03 PM 33.9133 -118.8578 268° West 369 425 13,800 2,758 Climbing Los Angeles Center
Thu 02:23:05 PM 33.9628 -118.9661 299° West 375 432 16,800 2,565 Climbing Los Angeles Center
Thu 02:24:07 PM 34.0322 -119.0672 310° West 391 450 19,100 2,419 Climbing Los Angeles Center
Thu 02:25:09 PM 34.1036 -119.1708 310° West 401 461 21,800 2,274 Climbing Los Angeles Center
Thu 02:26:11 PM 34.1750 -119.2772 309° West 411 473 23,800 1,887 Climbing Los Angeles Center
Thu 02:27:13 PM 34.2486 -119.3869 309° West 420 483 25,700 2,112 Climbing Los Angeles Center
Thu 02:28:16 PM 34.3383 -119.5211 309° West 427 491 28,200 2,352 Climbing Los Angeles Center
Thu 02:29:18 PM 34.4119 -119.6300 309° West 420 483 30,600 1,887 Climbing Los Angeles Center
Thu 02:30:20 PM 34.4850 -119.7381 309° West 416 479 32,100 1,500 Climbing Los Angeles Center
Thu 02:31:22 PM 34.5747 -119.8272 321° Northwest 420 483 33,700 919 Climbing Los Angeles Center
Thu 02:32:24 PM 34.6731 -119.9058 327° Northwest 415 478 34,000 145 Climbing Los Angeles Center
Thu 02:33:26 PM 34.7678 -119.9850 326° Northwest 413 475 34,000 145 Level Los Angeles Center
Thu 02:34:28 PM 34.8819 -120.0797 326° Northwest 414 476 34,300 968 Climbing Los Angeles Center
Thu 02:35:30 PM 34.9664 -120.1503 326° Northwest 409 471 36,000 823 Climbing Los Angeles Center
Thu 02:36:32 PM 35.0600 -120.2283 326° Northwest 412 474 36,000 -48 Level Los Angeles Center
Thu 02:37:35 PM 35.1753 -120.3244 326° Northwest 421 484 35,900  Descending Los Angeles Center
Thu 02:38:37 PM 35.2703 -120.4033 326° Northwest 416 479 36,000 48 Climbing Los Angeles Center
Thu 02:39:39 PM 35.3639 -120.4842 325° Northwest 415 478 36,000 -65 Level Los Angeles Center
Thu 02:40:10 PM 35.4192 -120.5314 325° Northwest 412 474 35,900  Descending Oakland Center
Thu 02:41:11 PM 35.5147 -120.6114 326° Northwest 412 474 36,000 49 Climbing Oakland Center
Thu 02:42:12 PM 35.6083 -120.6919 325° Northwest 409 471 36,000 -49 Level Oakland Center
Thu 02:43:14 PM 35.7014 -120.7706 326° Northwest 407 468 35,900  Descending Oakland Center
Thu 02:44:15 PM 35.7944 -120.8500 325° Northwest 407 468 36,000 49 Climbing Oakland Center
Thu 02:45:16 PM 35.8892 -120.9275 326° Northwest 409 471 36,000 -537 Level Oakland Center
Thu 02:46:18 PM 35.9808 -121.0086 324° Northwest 407 468 34,900 -2,341 Descending Oakland Center
Thu 02:47:19 PM 36.0794 -121.0906 326° Northwest 431 496 31,200 -3,344 Descending Oakland Center
Thu 02:48:20 PM 36.1797 -121.1772 325° Northwest 441 507 28,100 -2,976 Descending Oakland Center
Thu 02:49:22 PM 36.2828 -121.2658 325° Northwest 452 520 25,100 -3,122 Descending Oakland Center
Thu 02:50:23 PM 36.4019 -121.3694 325° Northwest 440 506 21,700 -3,098 Descending Oakland Center
Thu 02:51:24 PM 36.5000 -121.4556 325° Northwest 434 499 18,800 -2,634 Descending Oakland Center
Thu 02:52:26 PM 36.5900 -121.5350 325° Northwest 401 461 16,300 -2,488 Descending Oakland Center
Thu 02:53:27 PM 36.6800 -121.6019 329° Northwest 383 441 13,700 -2,164 Descending Oakland Center
Thu 02:54:28 PM 36.7783 -121.5906 North 352 405 11,900 -1,512 Descending Oakland Center
Thu 02:55:30 PM 36.8697 -121.5808 North 320 368 10,600 -1,366 Descending Oakland Center
Thu 02:56:31 PM 36.9458 -121.5767 North 290 334 9,100 -1,512 Descending Oakland Center
Thu 02:57:33 PM 37.0169 -121.6203 334° Northwest 286 329 7,500 -1,512 Descending Oakland Center
Thu 02:58:34 PM 37.0861 -121.6611 335° Northwest 277 319 6,000 -1,376 Descending Oakland Center
Thu 02:59:22 PM 37.1500 -121.7000 334° Northwest 259 298 5,000 -944 Descending Northern Cal TRACON
Thu 03:00:22 PM 37.2000 -121.7500 321° Northwest 225 259 4,300 -640 Descending Northern Cal TRACON
Thu 03:00:37 PM 37.2033 -121.7514 342° North 248 285 4,200 -947 Descending Oakland Center
Thu 03:01:38 PM 37.2536 -121.8100 317° Northwest 220 253 3,100 -1,122 Descending Oakland Center
Thu 03:02:40 PM 37.2919 -121.8514 319° Northwest 199 229 1,900 -1,024 Descending Oakland Center
Thu 03:03:41 PM 37.3250 -121.8872 319° Northwest 177 204 1,000 -885 Descending Oakland Center
Thu 03:04:42 PM 37.3533 -121.9169 320° Northwest 153 176 100 -885 Descending Oakland Center
Thu 03:06:00 PM 37.3500 -121.9167 North  Level FlightAware Approximate
Thu 03:13:00 PM 37.3627 -121.9291 North  Level Estimated
Thu 03:14:00 PM 37.3627 -121.9291 North  Level Estimated

Login

Don't have an account? Register now (free) for customized features, flight alerts, and more!